Wind_Speed
15 14 13 13 12 12 12 12 11 11 10 10 9 9 9 8 7 7 6 6 6 5 5 5 5 4 4 5 6 6 5 5 5 5 6 5 5 4 4 4 5 5 5 5 4 4 4 4 4
15 14 13 13 12 12 13 14 13 12 10 10 10 10 10 9 8 7 7 7 7 5 5 5 5 5 5 5 6 6 5 5 5 5 5 5 5 5 4 5 4 4 5 4 4 4 4 4 4
15 15 14 14 13 13 13 14 14 13 11 11 11 11 11 10 9 8 7 7 7 6 6 6 6 6 5 5 5 5 5 5 5 5 5 5 5 5 5 4 4 4 4 4 4 4 4 4 4
16 16 15 14 14 13 13 14 13 12 12 11 11 12 11 10 9 8 8 7 8 7 7 8 7 6 5 6 6 6 6 6 6 6 6 5 5 4 4 4 4 4 4 3 3 4 4 5 4
15 16 16 16 15 14 13 13 13 13 12 11 11 12 11 10 9 8 8 8 8 8 9 9 9 8 8 9 9 8 7 7 7 6 6 5 5 4 4 4 4 4 4 3 3 3 4 5 5
15 15 16 16 15 14 13 13 13 14 13 12 11 12 11 10 9 8 8 8 8 9 9 9 10 10 10 10 10 9 8 8 7 6 6 5 5 4 4 3 2 3 3 3 3 3 3 3 4
16 15 16 16 16 15 13 13 13 13 13 12 12 11 12 11 9 9 8 8 8 8 9 9 9 10 10 10 9 9 8 8 7 6 6 6 5 4 4 3 2 2 2 2 2 2 3 3 2
15 16 16 16 16 15 14 14 14 14 14 13 12 11 11 10 10 9 9 8 8 8 8 9 9 9 9 9 9 9 9 8 7 7 6 6 5 4 3 3 3 2 3 2 2 2 2 2 1
15 16 16 16 15 15 15 15 14 14 14 13 12 11 11 10 9 9 9 9 8 8 8 8 8 8 8 8 8 8 8 8 7 7 7 6 6 5 4 3 3 4 3 3 3 2 2 1 1
13 15 16 15 15 15 15 15 14 14 14 13 12 12 11 10 9 9 9 9 9 8 8 8 8 7 8 8 8 9 8 8 7 7 6 5 5 5 4 4 4 4 4 3 2 2 1 0 1
12 13 14 15 16 15 15 14 13 13 13 13 12 11 10 9 9 9 9 10 9 9 9 8 8 8 7 8 8 7 7 7 6 6 5 4 4 3 3 3 4 4 4 3 2 2 1 1 1
10 12 13 15 15 15 15 14 13 12 12 12 11 10 10 9 9 8 8 9 9 9 8 8 8 8 8 8 7 7 6 5 5 5 4 4 3 3 3 4 4 3 3 2 2 2 1 1 1
9 10 12 13 14 15 14 13 12 12 12 11 10 9 9 9 8 8 8 8 8 8 8 8 8 8 7 7 7 7 6 6 5 5 4 4 3 3 2 3 3 3 2 2 2 2 2 2 2
7 9 10 11 12 12 13 12 11 11 10 10 9 9 9 9 9 8 8 8 8 8 8 8 8 7 7 6 6 6 6 5 5 5 4 3 2 2 2 2 3 2 2 2 2 3 3 3 3
6 7 8 9 9 10 10 10 10 9 9 8 8 9 9 9 9 9 8 8 8 7 7 7 7 6 6 6 5 5 5 5 4 4 2 2 2 1 2 2 2 2 2 2 2 3 3 3 4
5 5 6 7 8 8 8 9 8 7 7 7 7 7 8 8 8 8 8 7 7 7 7 7 7 6 6 5 5 5 5 5 4 3 3 2 2 1 1 2 2 2 2 2 2 3 3 4 4
3 3 4 5 6 6 6 8 8 7 6 6 6 6 6 7 6 6 6 6 6 6 7 7 7 7 6 6 6 5 5 5 4 4 3 3 2 1 0 2 2 2 2 2 3 4 4 4 5
4 3 2 3 4 4 5 6 7 7 6 5 5 5 5 5 5 6 5 5 5 5 6 6 6 6 6 6 5 4 5 4 4 4 4 3 2 1 1 2 2 3 3 3 3 4 5 5 5
6 4 2 1 1 2 3 4 5 6 6 5 5 4 4 4 5 5 5 5 4 5 5 5 6 6 5 5 5 4 4 4 4 4 4 3 3 2 2 2 3 3 3 4 4 5 5 5 6
8 7 5 3 2 2 1 2 3 4 4 4 4 5 5 4 4 5 5 5 5 5 5 5 5 5 4 5 5 5 4 4 4 4 4 4 3 3 3 2 3 4 4 5 5 6 6 7 7
10 9 8 6 4 4 3 1 2 3 3 3 4 4 4 4 4 4 5 4 4 4 4 3 3 3 3 3 4 4 4 3 3 3 3 3 4 3 3 3 3 3 3 4 5 6 7 8 8
11 11 11 9 8 6 5 3 2 2 3 3 3 4 4 2 2 2 2 3 2 1 1 1 1 1 2 2 2 3 3 3 3 3 3 3 4 4 3 3 4 4 4 5 5 6 7 8 8
13 12 13 12 11 9 7 6 4 3 2 2 3 4 3 3 2 2 3 3 3 2 1 2 1 1 1 1 1 2 3 3 4 4 4 4 5 5 5 5 5 5 5 6 6 7 8 9 9
15 14 14 14 13 11 9 8 5 4 4 4 4 3 3 3 3 3 3 4 3 3 3 3 2 2 2 2 2 3 3 4 4 5 5 5 5 6 6 6 6 6 7 7 8 8 9 9 10
17 16 15 15 14 13 11 10 7 6 6 6 6 5 5 5 4 3 3 4 4 4 4 4 4 3 3 4 4 4 5 5 6 6 6 6 7 7 7 7 8 8 8 9 9 10 10 10 11
18 17 16 16 15 14 13 13 9 8 7 6 6 7 6 6 5 4 4 4 5 5 5 5 5 5 5 5 6 6 7 7 7 7 7 7 8 8 8 9 9 9 10 11 11 12 12 12 13
21 20 18 18 18 17 15 13 11 10 9 8 8 7 7 6 6 5 5 5 6 6 6 6 6 6 6 6 7 7 8 8 9 9 9 9 9 10 10 10 11 11 11 12 12 13 13 14 14
22 21 21 21 19 18 17 15 13 12 10 9 9 8 8 7 7 7 7 7 7 7 8 8 8 7 8 8 9 9 9 10 10 10 11 11 11 11 11 12 12 12 12 13 13 13 14 14 16
23 23 23 22 21 19 18 16 14 14 14 13 11 11 10 9 9 8 8 8 8 9 8 9 10 9 9 9 10 10 11 12 12 12 12 12 12 12 12 13 13 13 13 14 14 15 15 16 17
25 24 23 23 22 21 20 17 15 15 15 15 14 13 12 11 10 9 9 9 10 10 10 11 11 11 11 11 11 12 13 14 14 14 13 14 14 14 14 14 14 15 15 16 16 17 17 17 18
Wind_Direction
78 78 77 76 79 77 75 73 72 70 74 75 74 74 73 77 83 82 77 78 79 86 98 103 102 118 124 135 138 139 136 131 130 136 142 141 144 143 145 148 145 150 153 156 156 152 145 160 176
77 79 78 78 81 79 74 74 72 69 72 71 70 73 74 77 81 82 82 81 83 90 93 89 96 109 125 138 143 138 135 135 135 136 146 150 153 153 154 152 149 147 145 151 159 160 156 171 178
77 78 77 80 79 80 77 74 71 68 69 68 67 70 71 71 75 83 85 86 87 90 88 88 97 107 122 134 140 137 131 133 132 133 138 142 145 152 158 159 164 156 151 162 174 178 183 185 194
79 77 75 76 76 78 77 75 71 68 66 67 68 68 68 69 74 83 84 83 85 88 87 89 95 104 113 124 130 124 125 127 124 125 130 131 134 138 155 154 159 158 165 175 187 199 207 205 205
79 75 74 75 75 75 76 74 71 69 68 68 69 69 67 67 72 80 84 85 86 90 89 92 94 96 103 112 116 115 115 116 117 116 122 120 130 143 151 149 154 164 176 182 192 207 214 219 212
76 76 75 75 72 72 72 73 72 69 67 68 69 68 66 65 69 76 79 80 81 87 89 93 93 94 96 100 101 106 107 109 111 114 115 127 141 144 136 134 133 151 173 181 193 194 194 189 193
77 77 76 75 72 70 70 70 71 70 67 65 66 70 68 66 68 74 77 79 81 88 91 93 95 97 98 100 101 101 103 107 107 110 119 122 128 134 137 134 145 149 154 170 175 178 169 173 185
75 77 78 76 72 68 70 68 67 68 66 65 64 67 70 69 67 72 75 78 80 82 89 93 95 99 103 106 105 103 102 106 110 111 113 116 115 114 121 135 155 156 151 148 152 160 170 170 168
76 76 77 76 73 70 70 68 65 65 65 64 65 67 71 72 70 70 74 79 80 81 86 97 97 102 106 106 103 101 99 104 107 107 106 111 115 120 126 121 132 161 169 156 137 131 138 172 235
79 76 76 73 73 70 68 68 64 63 62 61 64 68 69 72 70 67 72 78 79 80 82 87 93 98 100 103 102 99 100 104 106 107 108 110 112 112 119 121 138 152 160 153 145 143 158 212 233
80 77 78 74 73 71 67 66 64 64 64 62 65 68 69 69 69 70 71 74 78 83 83 85 88 92 97 101 103 104 102 105 105 106 112 114 117 116 122 127 140 140 148 156 163 165 182 226 243
82 83 79 75 73 70 66 64 61 60 64 65 64 64 65 66 67 70 72 73 76 80 81 87 91 92 92 94 101 107 102 106 110 107 108 114 119 123 122 123 134 140 148 161 169 182 214 227 259
88 85 79 75 70 68 66 64 60 58 60 64 64 63 62 63 63 64 69 70 75 79 80 85 93 94 91 91 96 96 90 91 96 100 101 105 115 124 125 140 148 148 161 179 192 212 225 234 252
95 86 79 75 71 68 63 60 55 57 57 59 61 62 63 62 61 66 72 70 73 76 79 84 93 97 96 93 94 94 86 85 89 90 90 101 121 147 164 158 165 174 183 191 218 237 240 253 253
100 91 82 74 68 62 61 57 50 53 52 52 53 56 57 61 61 63 70 69 70 70 75 81 85 91 93 92 88 85 81 84 93 84 75 87 115 147 175 178 190 202 212 238 246 250 250 258 261
106 97 85 72 64 58 57 51 48 46 43 42 46 50 56 59 60 62 65 66 70 72 76 80 82 83 80 80 83 85 85 85 90 78 63 57 64 105 167 195 205 217 229 244 257 267 259 263 266
145 109 79 69 64 59 52 46 44 43 35 32 40 47 54 57 59 62 64 65 71 77 82 85 82 79 76 74 76 80 82 82 79 67 55 48 42 28 238 221 223 236 247 258 267 268 269 273 272
178 147 94 79 65 59 57 51 47 46 36 28 37 47 49 46 49 61 63 66 72 79 86 88 83 79 74 71 72 76 73 67 60 52 43 35 22 339 295 253 252 262 268 271 273 276 276 277 277
206 204 198 138 84 61 66 50 42 44 38 30 33 42 43 46 51 58 64 65 81 83 90 92 88 81 71 62 59 61 63 52 44 42 39 33 19 354 321 278 266 268 277 281 283 280 280 279 280
215 213 219 220 225 224 197 40 21 22 32 30 25 39 49 54 58 61 69 70 76 84 89 90 86 79 66 56 49 48 49 42 39 40 37 32 23 13 358 315 294 282 283 288 288 286 284 286 284
220 221 225 232 235 242 237 258 329 354 6 4 358 15 33 40 42 58 63 63 68 74 78 80 81 71 56 53 46 37 32 30 26 24 21 17 16 5 356 339 324 314 300 298 295 291 287 290 289
226 230 231 238 245 248 258 271 258 280 347 359 349 355 359 4 3 17 28 31 37 53 74 77 54 56 27 29 35 32 29 22 7 0 357 353 351 345 342 334 328 325 313 310 303 298 295 292 289
232 231 232 238 248 250 257 270 266 255 296 322 330 338 341 326 318 319 323 336 346 336 304 279 294 337 338 310 332 351 355 354 346 338 333 333 332 329 323 318 315 314 307 307 304 306 303 297 292
232 231 232 237 245 251 258 265 257 253 262 281 297 309 313 312 303 305 308 306 306 310 308 303 301 312 323 316 317 332 340 338 336 332 325 324 321 316 313 308 306 306 305 303 303 302 303 299 296
232 233 233 238 244 253 258 259 256 255 261 274 282 284 288 293 292 293 302 296 290 290 301 308 301 299 305 312 317 323 327 329 327 325 323 320 316 313 309 307 304 305 304 300 300 301 301 299 298
231 234 236 242 248 255 257 260 258 259 265 273 276 276 281 284 283 291 304 304 295 291 288 300 304 303 296 300 306 309 313 315 316 317 317 315 311 308 306 308 305 307 306 304 301 300 299 297 296
233 236 238 244 248 253 255 257 253 257 265 267 268 272 276 273 274 280 290 295 299 290 286 290 295 295 298 302 299 297 301 305 305 306 308 308 304 301 300 301 301 303 304 304 304 304 299 296 296
234 238 241 246 251 256 256 256 258 260 262 267 271 272 270 268 268 268 279 287 291 294 287 286 287 287 290 295 294 292 291 294 299 300 303 306 303 300 301 301 301 301 302 302 302 302 301 297 294
235 239 243 247 252 255 257 258 261 264 267 272 276 273 276 279 275 271 276 282 288 295 294 291 287 286 289 293 294 291 290 289 291 294 299 301 301 300 298 297 298 299 299 300 300 300 300 298 295
236 239 244 248 251 255 259 260 263 264 266 271 275 273 272 273 274 276 277 279 284 289 291 292 291 284 285 289 292 293 292 292 291 291 296 300 300 295 291 294 295 295 296 298 299 298 298 297 296
Height
5878 5877 5877 5878 5878 5876 5875 5875 5874 5874 5874 5874 5873 5873 5873 5873 5874 5876 5874 5872 5873 5873 5873 5873 5873 5873 5874 5874 5875 5876 5876 5877 5878 5878 5879 5880 5882 5883 5884 5885 5886 5887 5888 5889 5890 5891 5892 5893 5894
5880 5880 5880 5880 5878 5877 5877 5876 5876 5875 5876 5875 5875 5874 5874 5874 5874 5874 5874 5874 5874 5874 5873 5873 5873 5873 5874 5874 5875 5876 5876 5877 5878 5879 5880 5881 5882 5884 5885 5886 5887 5888 5889 5890 5891 5892 5893 5893 5894
5882 5882 5882 5881 5880 5879 5879 5878 5878 5877 5877 5877 5876 5876 5875 5875 5875 5875 5875 5875 5875 5875 5874 5874 5873 5873 5873 5874 5875 5876 5877 5877 5878 5879 5880 5881 5883 5884 5885 5887 5888 5889 5890 5891 5891 5892 5893 5894 5895
5885 5885 5885 5883 5882 5881 5880 5880 5879 5879 5879 5878 5878 5878 5877 5877 5876 5876 5876 5876 5876 5876 5875 5875 5874 5874 5874 5874 5875 5876 5877 5878 5879 5880 5881 5882 5883 5884 5886 5887 5888 5889 5890 5891 5892 5893 5893 5894 5895
5887 5887 5886 5885 5884 5883 5882 5882 5881 5881 5880 5880 5880 5879 5879 5879 5878 5878 5878 5878 5878 5877 5877 5877 5876 5876 5875 5876 5877 5878 5878 5879 5880 5881 5882 5883 5884 5885 5886 5887 5888 5889 5890 5891 5892 5893 5893 5894 5894
5890 5889 5888 5886 5886 5885 5884 5884 5883 5883 5882 5883 5882 5882 5881 5881 5880 5880 5880 5880 5880 5879 5879 5878 5878 5878 5878 5878 5879 5879 5880 5880 5881 5882 5883 5884 5885 5886 5887 5888 5889 5889 5890 5891 5892 5893 5893 5894 5894
5892 5891 5889 5888 5888 5887 5887 5886 5885 5885 5885 5885 5885 5884 5883 5883 5883 5882 5882 5882 5882 5881 5881 5881 5880 5880 5880 5881 5881 5881 5881 5882 5883 5883 5884 5885 5886 5887 5888 5888 5888 5889 5890 5891 5892 5892 5893 5894 5895
5893 5893 5891 5890 5890 5890 5889 5888 5888 5887 5887 5887 5887 5886 5885 5885 5885 5884 5884 5884 5883 5883 5883 5882 5882 5882 5882 5883 5883 5883 5883 5884 5884 5885 5886 5887 5887 5888 5888 5888 5888 5889 5890 5891 5892 5893 5893 5894 5895
5896 5896 5893 5892 5892 5892 5891 5890 5890 5890 5889 5889 5888 5888 5887 5887 5886 5886 5886 5885 5885 5884 5884 5884 5884 5884 5884 5884 5885 5885 5885 5885 5886 5886 5887 5888 5888 5889 5889 5888 5888 5889 5891 5892 5892 5893 5894 5894 5895
5898 5897 5895 5895 5894 5893 5893 5892 5892 5892 5891 5890 5890 5889 5889 5889 5888 5888 5887 5887 5886 5886 5886 5886 5886 5886 5886 5886 5886 5886 5887 5887 5888 5888 5889 5889 5889 5890 5889 5889 5889 5890 5891 5892 5893 5894 5894 5894 5895
5900 5899 5898 5896 5896 5895 5895 5894 5894 5893 5893 5892 5892 5891 5891 5890 5890 5889 5889 5888 5888 5888 5887 5887 5887 5887 5887 5887 5888 5888 5888 5888 5889 5889 5890 5890 5890 5890 5890 5890 5891 5891 5892 5893 5893 5894 5894 5895 5895
5901 5901 5900 5899 5898 5897 5896 5896 5896 5896 5895 5895 5894 5893 5893 5892 5891 5891 5891 5890 5889 5889 5889 5888 5888 5888 5889 5889 5889 5889 5889 5890 5890 5890 5890 5891 5891 5891 5891 5891 5892 5892 5893 5893 5893 5894 5894 5895 5895
5903 5903 5902 5901 5900 5899 5899 5898 5898 5897 5897 5896 5896 5895 5895 5894 5893 5892 5892 5891 5891 5891 5890 5890 5890 5890 5890 5890 5890 5890 5890 5890 5890 5891 5891 5891 5891 5891 5891 5891 5892 5892 5893 5893 5893 5894 5894 5895 5895
5904 5904 5903 5903 5902 5901 5900 5900 5900 5899 5899 5898 5898 5897 5897 5896 5895 5894 5893 5893 5893 5892 5892 5891 5891 5891 5891 5891 5891 5891 5891 5891 5891 5891 5891 5891 5890 5891 5891 5891 5892 5892 5892 5893 5893 5893 5894 5894 5894
5905 5905 5905 5905 5904 5903 5903 5902 5902 5901 5900 5900 5900 5899 5898 5897 5896 5895 5895 5895 5894 5894 5893 5893 5893 5893 5893 5893 5893 5892 5892 5892 5892 5891 5891 5890 5890 5890 5891 5891 5892 5892 5892 5892 5893 5893 5893 5893 5893
5906 5906 5907 5906 5905 5905 5906 5904 5903 5902 5902 5901 5901 5900 5899 5898 5898 5897 5896 5896 5896 5895 5895 5894 5894 5894 5894 5894 5894 5893 5893 5893 5892 5892 5891 5890 5890 5890 5890 5891 5891 5892 5892 5892 5892 5892 5892 5892 5892
5907 5907 5907 5907 5907 5906 5906 5905 5904 5903 5903 5902 5901 5901 5900 5899 5899 5898 5898 5897 5896 5896 5896 5896 5896 5895 5895 5895 5894 5894 5894 5893 5893 5892 5891 5890 5890 5890 5890 5890 5891 5891 5891 5891 5891 5891 5891 5891 5891
5907 5907 5907 5908 5908 5907 5906 5906 5905 5904 5903 5903 5902 5901 5901 5900 5900 5899 5899 5898 5897 5897 5897 5897 5897 5897 5896 5896 5895 5895 5894 5894 5893 5893 5892 5891 5890 5890 5890 5890 5890 5890 5891 5890 5890 5890 5890 5890 5890
5906 5907 5907 5908 5908 5907 5907 5906 5905 5904 5904 5903 5903 5902 5902 5901 5900 5899 5899 5899 5898 5898 5898 5898 5898 5898 5897 5897 5896 5895 5895 5894 5894 5893 5892 5891 5891 5890 5889 5889 5889 5890 5890 5889 5889 5889 5889 5889 5888
5905 5907 5907 5908 5907 5907 5907 5907 5906 5905 5905 5904 5904 5903 5902 5901 5901 5900 5900 5899 5899 5899 5899 5898 5898 5898 5898 5897 5897 5896 5895 5895 5894 5893 5893 5892 5891 5890 5890 5890 5889 5889 5889 5888 5888 5888 5887 5887 5887
5904 5906 5906 5907 5907 5907 5907 5907 5906 5906 5905 5905 5905 5904 5903 5902 5902 5901 5901 5900 5899 5899 5899 5899 5899 5898 5898 5898 5897 5896 5896 5895 5894 5894 5893 5892 5891 5890 5890 5889 5889 5888 5887 5887 5887 5887 5886 5886 5885
5903 5904 5905 5905 5905 5906 5906 5906 5906 5906 5905 5905 5905 5904 5904 5903 5902 5902 5901 5900 5900 5899 5899 5899 5899 5898 5898 5898 5897 5896 5896 5895 5895 5894 5893 5892 5891 5890 5889 5889 5888 5887 5887 5886 5886 5886 5885 5884 5883
5901 5902 5902 5903 5903 5904 5904 5905 5906 5905 5905 5905 5905 5904 5904 5903 5902 5902 5901 5900 5899 5899 5898 5898 5898 5898 5897 5897 5897 5896 5896 5895 5894 5893 5892 5891 5891 5890 5889 5888 5887 5887 5886 5886 5885 5884 5884 5883 5882
5898 5899 5900 5900 5901 5903 5903 5903 5905 5904 5904 5904 5904 5904 5903 5903 5902 5901 5900 5900 5899 5898 5898 5897 5897 5897 5897 5897 5896 5896 5895 5894 5893 5893 5892 5891 5890 5889 5888 5887 5887 5886 5885 5884 5884 5883 5882 5881 5880
5895 5897 5898 5898 5899 5900 5901 5901 5903 5903 5903 5903 5903 5903 5902 5902 5901 5900 5899 5899 5898 5897 5897 5896 5896 5896 5896 5896 5895 5895 5894 5893 5892 5891 5891 5890 5889 5888 5887 5886 5885 5884 5883 5882 5882 5881 5880 5879 5878
5892 5894 5896 5896 5897 5898 5899 5899 5902 5902 5901 5901 5901 5901 5901 5901 5900 5899 5898 5898 5897 5896 5896 5895 5895 5894 5894 5894 5894 5893 5893 5892 5891 5890 5889 5888 5887 5886 5885 5884 5883 5882 5881 5880 5879 5878 5877 5876 5876
5888 5889 5892 5893 5894 5895 5896 5898 5899 5899 5899 5899 5899 5899 5899 5899 5898 5898 5897 5896 5896 5895 5894 5894 5893 5893 5892 5892 5892 5891 5891 5890 5889 5888 5887 5886 5885 5884 5883 5882 5881 5880 5879 5878 5876 5876 5874 5873 5872
5884 5886 5888 5889 5890 5891 5893 5895 5897 5897 5897 5898 5897 5897 5897 5897 5896 5896 5895 5894 5894 5893 5893 5892 5892 5891 5891 5890 5890 5889 5888 5888 5887 5886 5885 5884 5882 5881 5880 5879 5878 5877 5876 5875 5874 5872 5871 5870 5868
5880 5882 5883 5885 5887 5888 5889 5894 5894 5894 5894 5895 5895 5895 5894 5894 5893 5893 5892 5892 5891 5891 5890 5890 5890 5889 5888 5888 5887 5886 5886 5885 5884 5882 5881 5880 5879 5878 5877 5876 5875 5874 5872 5871 5870 5869 5867 5866 5864
5875 5877 5879 5881 5883 5884 5885 5891 5890 5890 5890 5891 5892 5892 5891 5891 5891 5890 5890 5889 5889 5888 5888 5887 5887 5886 5885 5885 5884 5883 5883 5881 5880 5879 5878 5876 5875 5874 5873 5872 5871 5870 5869 5867 5866 5865 5863 5862 5860